Regional Weather Roundup
Issued by NWS

Home | Current Version | Previous Version | Text Only | Print | Product List | Glossary On
Versions: 1 2 3 4 5 6 7 8 9 10 11 12 13 14 15 16 17 18 19 20 21 22 23 24 25 26 27 28 29 30 31 32 33 34 35 36 37 38 39 40 41 42 43 44 45 46 47 48 49 50
000
ASUS45 KCYS 311110
RWRWY

WYOMING REGIONAL WEATHER ROUNDUP
NATIONAL WEATHER SERVICE CHEYENNE WY
500 AM MDT MON AUG 31 2015

NOTE:  "FAIR" INDICATES FEW OR NO CLOUDS BELOW 12,000 FEET
WITH NO SIGNIFICANT WEATHER AND/OR OBSTRUCTIONS TO VISIBILITY.

WYZ001-311200-
YELLOWSTONE NATIONAL PARK

CITY           SKY/WX    TMP DP  RH WIND       PRES   REMARKS
LK YELLOWSTONE   N/A     35  27  72 CALM      30.21R
W YELLOWSTONE  NOT AVBL

$$
WYZ002>013-054>058-071-098>099-311200-
NORTHERN WYOMING

CITY           SKY/WX    TMP DP  RH WIND       PRES   REMARKS
JACKSON        FAIR      46  30  53 CALM      30.15S
CODY           FAIR      52  37  58 SE3       30.02F
GREYBULL       FAIR      62  40  44 W15       29.94R
WORLAND        FAIR      61  39  44 NW5       29.95R
SHERIDAN       FAIR      56  42  59 W10       30.02R
BUFFALO        FAIR      56  43  61 N22G37    30.01R
GILLETTE       FAIR      61  48  62 NW16      29.98R
HULETT         FAIR      64  52  63 NW8       29.96R
NEWCASTLE      FAIR      64  45  48 N8        29.91R

$$
WYZ014>020-022>026-101>103-311200-
CENTRAL WYOMING

CITY           SKY/WX    TMP DP  RH WIND       PRES   REMARKS
BIG PINEY      FAIR      41  26  55 NW6       30.21R
PINEDALE       FAIR      37  32  81 NW3       30.21S
DUBOIS         FAIR      45  21  39 NW12      30.16S
LANDER         FAIR      58  39  49 W7        30.06R
RIVERTON       FAIR      56  33  42 NW9       30.06R
CASPER         FAIR      62  43  49 CALM      30.04R
DOUGLAS        FAIR      70  45  40 N7        30.01R

$$
WYZ021-027>030-104>119-311200-
SOUTHERN WYOMING

CITY           SKY/WX    TMP DP  RH WIND       PRES   REMARKS
EVANSTON       FAIR      53  40  61 E3        30.22R
KEMMERER       FAIR      46  32  57 N12       30.21S
FORT BRIDGER   MOSUNNY   54  45  71 SW8       30.24R
ROCK SPRINGS   FAIR      53  49  86 W7        30.18S
DIXON          CLOUDY    55  53  91 E14       30.23F
RAWLINS        FAIR      61  44  53 SW18      30.16R
SARATOGA       CLOUDY    55  50  82 S21       30.23F
LARAMIE        LGT RAIN  56  48  74 SW12      30.22S
CHEYENNE       FAIR      68  45  43 W28G37    30.10R
TORRINGTON     MOCLDY    73  51  46 NW14      29.95R
PINE BLUFFS    PTSUNNY   70  46  43 W13       30.05R

$$


USA.gov is the U.S. government's official web portal to all federal, state and local government web resources and services.